Flag for Belgium Weather past 2 weeks in Antwerp, Belgium

Now
82 °F

Sunny.


Feels Like: 82 °F
Forecast: 64 / 79 °F
Wind: 15 mph from Northwest

Location: Antwerp / Deurne

Current Time: Jul 4, 2015 at 6:13:04 PM

Latest Report: Jul 4, 2015 at 5:50 PM


Visibility: 10 mi

Pressure: 30.09 "Hg

Humidity: 45%

Dew point: 59 °F

Location of AntwerpLocation

Historic Weather in Antwerp — Graph

°F

Antwerp temperature yesterday

Maximum temperature yesterday: 90 °F (at 4:50 PM)
Minimum temperature yesterday: 66 °F (at 4:50 AM)
Average temperature yesterday: 78 °F

Past Weeks' High & Low Weather Summary

 TemperatureHumidityPressure
High95 °F (Jul 1, 5:20 PM)94% (Jun 22, 11:20 PM)30.27 "Hg (Jun 22, 11:20 PM)
Low50 °F (Jun 22, 10:20 PM)25% (Jul 1, 5:20 PM)29.74 "Hg (Jun 22, 3:50 PM)
Average67 °F63%30.08 "Hg
* Reported Jun 19 4:20 PM — Jul 4 4:50 PM, Antwerp, Weather by CustomWeather, © 2015

Note: Actual official high and low records may vary slightly from our data, if they occured in-between our weather recording intervals... More about our weather records

Advertising

Antwerp weather history for previous 24 hours

 ConditionsComfort  
Time TempWeatherWind HumidityBarometerVisibility
4:50 PM
Sat, Jul 4
86 °FSunny.14 mph40%30.09 "Hg10 mi
4:20 PM90 °FSunny.10 mph33%30.09 "Hg10 mi
3:50 PM91 °FPassing clouds.13 mph32%30.09 "HgN/A
3:20 PM93 °FPassing clouds.6 mph34%30.07 "HgN/A
2:50 PM93 °FPassing clouds.8 mph34%30.07 "HgN/A
2:20 PM91 °FPassing clouds.6 mph36%30.07 "HgN/A
1:50 PM90 °FPassing clouds.8 mph41%30.07 "HgN/A
1:20 PM91 °FPassing clouds.12 mph38%30.09 "HgN/A
12:50 PM90 °FPassing clouds.14 mph43%30.07 "HgN/A
12:20 PM90 °FPassing clouds.10 mph43%30.07 "HgN/A
11:50 AM90 °FPassing clouds.8 mph46%30.07 "HgN/A
11:20 AM90 °FPassing clouds.10 mph46%30.07 "HgN/A
10:50 AM86 °FPassing clouds.10 mph52%30.07 "HgN/A
10:20 AM86 °FPassing clouds.13 mph52%30.04 "HgN/A
9:50 AM84 °FSunny.10 mph55%30.04 "Hg10 mi
9:20 AM84 °FPassing clouds.9 mph55%30.04 "HgN/A
8:50 AM82 °FPassing clouds.8 mph58%30.04 "HgN/A
8:20 AM81 °FSunny.6 mph62%30.01 "Hg10 mi
7:50 AM79 °FPassing clouds.6 mph70%30.01 "HgN/A
7:20 AM77 °FSunny.5 mph74%30.01 "Hg10 mi
6:50 AM75 °FSunny.6 mph78%30.01 "Hg10 mi
6:20 AM73 °FClear.5 mph78%30.01 "Hg10 mi
5:50 AM73 °FClear.5 mph78%30.01 "Hg10 mi
5:20 AM73 °FClear.7 mph78%30.01 "Hg10 mi
4:50 AM75 °FClear.8 mph74%30.01 "Hg10 mi
4:20 AM75 °FClear.8 mph74%30.01 "Hg10 mi
3:50 AM75 °FClear.9 mph74%30.04 "Hg10 mi
3:20 AM77 °FClear.9 mph74%30.04 "Hg10 mi
2:50 AM77 °FClear.10 mph69%30.04 "Hg10 mi
2:20 AM77 °FClear.9 mph69%30.07 "Hg10 mi
1:50 AM77 °FClear.8 mph69%30.07 "Hg10 mi
1:20 AM79 °FClear.10 mph65%30.09 "Hg10 mi
12:50 AM79 °FClear.9 mph65%30.09 "Hg10 mi
12:20 AM81 °FClear.9 mph62%30.09 "Hg10 mi
11:50 PM
Fri, Jul 3
79 °FClear.9 mph65%30.12 "Hg10 mi
11:20 PM81 °FClear.8 mph62%30.12 "Hg10 mi
10:50 PM81 °FPassing clouds.8 mph62%30.12 "HgN/A
10:20 PM82 °FSunny.9 mph58%30.12 "Hg10 mi
9:50 PM82 °FSunny.10 mph58%30.12 "Hg10 mi
9:20 PM84 °FPassing clouds.12 mph55%30.12 "HgN/A
8:50 PM86 °FSunny.13 mph52%30.12 "Hg10 mi
8:20 PM86 °FSunny.12 mph52%30.12 "Hg10 mi
7:50 PM88 °FSunny.9 mph49%30.15 "Hg10 mi
7:20 PM88 °FSunny.9 mph46%30.15 "Hg10 mi
6:50 PM90 °FSunny.8 mph41%30.15 "Hg10 mi
6:20 PM90 °FPassing clouds.7 mph41%30.15 "HgN/A
Weather by CustomWeather, © 2015

See weather overviewHow to use our weather pages